USA 130 (DSP 18)

Last updated on Oct. 23, 2020, 5:56 a.m. UTC

1 24737U 97008A   20296.17844775  .00000015  00000-0  00000-0 0  9995
2 24737  13.6307  18.7061 0000862  85.0386 359.3262  1.00263441 10916
UTC
Height (km)
Latitude
Longitude
Inclination
Orbital Period
UTC large
Height (km)
Speed (km/s)
/
Latitude / Longitude
Inclination (degrees)
Orbital Period (minutes)
Azimuth
Elevation
Range (km)
Doppler Factor
iOS Compass Heading
iOS Angle

Next 30 passes for location: Hong Kong

Rise time Rise Azimuth (degrees) Set time Set Azimuth (degrees) Duration Max altitude (degrees)

No matching passes for this satellites